Weather History for Northeast Philadelphia, PA

Change the Weather History Date:

Friday, June 1, 2012

  Actual Average Record
Temperature  
Mean Temperature 66 °F -  
Max Temperature 75 °F 73 °F 93 °F (2011)
Min Temperature 57 °F 53 °F 46 °F (2001)
Cooling Degree Days 1    
Growing Degree Days 16 (Base 50)    
Moisture  
Dew Point 57 °F    
Average Humidity 70    
Maximum Humidity 90    
Minimum Humidity 51    
Precipitation  
Precipitation 0.11 in - - ()
Sea Level Pressure  
Sea Level Pressure 29.87 in    
Wind  
Wind Speed 9 mph (East)    
Max Wind Speed 20 mph    
Max Gust Speed 25 mph    
Visibility 9 miles    
Events Rain    
Averages and records for this station are not official NWS values.
T = Trace of Precipitation, MM = Missing Value Source: NWS Daily Summary

Daily Weather History Graph

Daily Weather History Graph

Search for Another Location

Airport:

Trip Planner

Search our weather history database for the weather conditions in past years. The results will help you decide how hot, cold, wet, or windy it might be!

Date:

Astronomy

Jun. 01, 2012 Rise Set
Actual Time 5:32 AM EDT 8:23 PM EDT
Civil Twilight 5:00 AM EDT 8:55 PM EDT
Nautical Twilight 4:20 AM EDT 9:36 PM EDT
Astronomical Twilight 3:33 AM EDT 10:23 PM EDT
Moon 5:22 PM EDT (6/1) 3:06 AM EDT (6/1)
Length of Visible Light 15h 55m
Length of Day
14h 50m
Waxing Gibbous, 89% of the Moon is Illuminated
Jun 1
Waxing Gibbous
Jun 4
Full
Jun 11
Last Quarter
Jun 19
New
Jun 26
First Quarter

Hourly Weather History & Observations

Time (EDT) Temp. Dew Point Humidity Pressure Visibility Wind Dir Wind Speed Gust Speed Precip Events Conditions
12:54 AM 63.0 °F 50.0 °F 63% 29.96 in 10.0 mi Calm Calm - N/A   Clear
1:54 AM 61.0 °F 50.0 °F 67% 29.96 in 10.0 mi NNE 3.5 mph - N/A   Clear
2:54 AM 60.1 °F 48.9 °F 67% 29.96 in 10.0 mi NE 4.6 mph - N/A   Clear
3:54 AM 57.9 °F 48.9 °F 72% 29.95 in 10.0 mi NE 6.9 mph - N/A   Clear
4:54 AM 57.9 °F 48.9 °F 72% 29.97 in 10.0 mi NE 5.8 mph - N/A   Clear
5:54 AM 57.9 °F 48.9 °F 72% 29.97 in 10.0 mi NE 6.9 mph - N/A   Clear
6:54 AM 62.6 °F 50.0 °F 63% 29.98 in 10.0 mi East 8.1 mph - N/A   Clear
7:54 AM 66.0 °F 50.0 °F 56% 29.99 in 10.0 mi East 9.2 mph - N/A   Clear
8:54 AM 68.0 °F 51.8 °F 56% 29.98 in 10.0 mi East 12.7 mph - N/A   Clear
9:54 AM 71.1 °F 53.1 °F 53% 29.98 in 10.0 mi ENE 13.8 mph - N/A   Clear
10:54 AM 75.0 °F 55.9 °F 51% 29.96 in 10.0 mi East 12.7 mph 23.0 mph N/A   Clear
11:54 AM 72.0 °F 55.0 °F 55% 29.96 in 10.0 mi ESE 15.0 mph - 0.00 in Rain Light Rain
12:54 PM 72.0 °F 55.0 °F 55% 29.95 in 10.0 mi East 17.3 mph - 0.00 in   Scattered Clouds
1:54 PM 72.0 °F 55.9 °F 57% 29.93 in 10.0 mi East 19.6 mph 25.3 mph N/A   Mostly Cloudy
2:54 PM 73.0 °F 57.0 °F 57% 29.90 in 10.0 mi ESE 15.0 mph 25.3 mph N/A   Mostly Cloudy
3:54 PM 71.6 °F 57.2 °F 60% 29.87 in 10.0 mi East 19.6 mph 24.2 mph N/A   Mostly Cloudy
4:54 PM 71.1 °F 57.9 °F 63% 29.86 in 10.0 mi East 17.3 mph - N/A   Mostly Cloudy
5:30 PM 69.8 °F 59.0 °F 68% 29.84 in 10.0 mi East 17.3 mph - N/A   Mostly Cloudy
5:54 PM 70.0 °F 59.0 °F 68% 29.84 in 10.0 mi East 17.3 mph 24.2 mph N/A   Overcast
6:54 PM 68.0 °F 59.0 °F 73% 29.84 in 10.0 mi ESE 15.0 mph 25.3 mph N/A   Overcast
7:54 PM 66.9 °F 61.0 °F 81% 29.83 in 10.0 mi ESE 17.3 mph - 0.00 in Rain Light Rain
8:54 PM 66.9 °F 63.0 °F 87% 29.78 in 6.0 mi East 17.3 mph - 0.03 in Rain Light Rain
9:06 PM 66.2 °F 62.6 °F 88% 29.77 in 10.0 mi East 18.4 mph - 0.01 in Rain Light Rain
9:54 PM 68.0 °F 64.0 °F 87% 29.76 in 10.0 mi East 13.8 mph - 0.02 in Rain Light Rain
10:15 PM 68.0 °F 64.4 °F 88% 29.75 in 10.0 mi ESE 11.5 mph - 0.00 in Rain Light Rain
10:54 PM 69.1 °F 66.0 °F 90% 29.73 in 9.0 mi SE 9.2 mph - 0.02 in   Overcast
11:13 PM 69.8 °F 66.2 °F 88% 29.72 in 8.0 mi SE 9.2 mph - N/A   Overcast
11:37 PM 71.6 °F 66.2 °F 83% 29.71 in 9.0 mi SSE 8.1 mph - 0.01 in Rain Light Rain
11:45 PM 71.6 °F 66.2 °F 83% 29.71 in 5.0 mi South 8.1 mph - 0.03 in Rain Rain
11:54 PM 71.1 °F 66.9 °F 87% 29.71 in 6.0 mi Variable 6.9 mph - 0.04 in Rain Light Rain